Kenai, AK

5:45 PM AKST on February 23, 2017 (GMT -0900)
Kenai Municipal

Weather History for PAEN - March, 2013

Change the Weather History Date:

Sunday, March 31, 2013

  Actual Average Record
Temperature  
Mean Temperature 32 °F -  
Max Temperature 39 °F 35 °F 53 °F (2016)
Min Temperature 26 °F 18 °F -12 °F (1972)
Degree Days  
Heating Degree Days 32    
Moisture  
Dew Point 29 °F    
Average Humidity 91    
Maximum Humidity 100    
Minimum Humidity 70    
Precipitation  
Precipitation 0.00 in - - ()
Sea Level Pressure  
Sea Level Pressure 30.22 in    
Wind  
Wind Speed 5 mph (NNE)    
Max Wind Speed 13 mph    
Max Gust Speed -    
Visibility 7 miles    
Events Fog    
Averages and records for this station are not official NWS values.
T = Trace of Precipitation, MM = Missing Value Source: NWS Daily Summary

Daily Weather History Graph

Daily Weather History Graph

Search for Another Location

Airport or City:

Trip Planner

Search our weather history database for the weather conditions in past years. The results will help you decide how hot, cold, wet, or windy it might be!

Date:

Astronomy

Mar. 31, 2013 Rise Set
Actual Time 7:30 AM AKDT 8:48 PM AKDT
Civil Twilight 6:47 AM AKDT 9:32 PM AKDT
Nautical Twilight 5:52 AM AKDT 10:27 PM AKDT
Astronomical Twilight 4:49 AM AKDT 11:32 PM AKDT
Moon 2:16 AM AKDT (3/31) 9:14 AM AKDT (3/31)
Length of Visible Light 14h 45m
Length of Day
13h 17m
Waning Gibbous, 76% of the Moon is Illuminated
Mar 31
Waning Gibbous
Apr 2
Last Quarter
Apr 10
New
Apr 18
First Quarter
Apr 25
Full

Hourly Weather History & Observations

Time (AKDT) Temp. Windchill Dew Point Humidity Pressure Visibility Wind Dir Wind Speed Gust Speed Precip Events Conditions
12:53 AM 33.1 °F 26.9 °F 30.9 °F 92% 30.24 in 10.0 mi NNE 6.9 mph - N/A   Overcast
1:53 AM 30.9 °F 24.3 °F 30.0 °F 96% 30.24 in 10.0 mi NNE 6.9 mph - N/A   Scattered Clouds
2:53 AM 30.0 °F - 28.9 °F 96% 30.25 in 10.0 mi Calm Calm - N/A   Mostly Cloudy
3:53 AM 30.0 °F - 28.0 °F 92% 30.25 in 10.0 mi Calm Calm - N/A   Overcast
4:53 AM 27.0 °F 21.6 °F 26.1 °F 96% 30.25 in 10.0 mi NNW 4.6 mph - N/A   Partly Cloudy
5:25 AM 26.6 °F - 26.6 °F 100% 30.24 in 10.0 mi Calm Calm - N/A   Scattered Clouds
5:33 AM 26.6 °F 22.6 °F 26.6 °F 100% 30.24 in 2.5 mi North 3.5 mph - N/A   Mostly Cloudy
5:38 AM 26.6 °F - 26.6 °F 100% 30.24 in 0.8 mi Calm Calm - N/A   Mist
5:53 AM 27.0 °F 23.0 °F 26.1 °F 96% 30.25 in 0.2 mi North 3.5 mph - N/A Fog Light Freezing Fog
6:42 AM 28.4 °F 23.3 °F 28.4 °F 100% 30.24 in 0.2 mi North 4.6 mph - N/A Fog Light Freezing Fog
6:49 AM 28.4 °F 24.6 °F 28.4 °F 100% 30.24 in 0.5 mi North 3.5 mph - N/A Fog Light Freezing Fog
6:53 AM 28.0 °F 24.2 °F 28.0 °F 100% 30.25 in 0.5 mi North 3.5 mph - N/A Fog Light Freezing Fog
7:38 AM 28.4 °F 22.2 °F 28.4 °F 100% 30.25 in 0.2 mi NNE 5.8 mph - N/A Fog Light Freezing Fog
7:53 AM 27.0 °F 21.6 °F 27.0 °F 100% 30.25 in 0.2 mi North 4.6 mph - N/A Fog Light Freezing Fog
8:53 AM 28.9 °F 21.9 °F 28.9 °F 100% 30.25 in 0.2 mi NNE 6.9 mph - N/A Fog Light Freezing Fog
9:09 AM 30.2 °F 22.6 °F 30.2 °F 100% 30.24 in 0.8 mi NNE 8.1 mph - N/A   Mist
9:53 AM 30.9 °F 22.8 °F 30.9 °F 100% 30.25 in 1.5 mi NE 9.2 mph - N/A   Overcast
10:53 AM 30.9 °F 22.8 °F 30.9 °F 100% 30.26 in 3.0 mi North 9.2 mph - N/A   Overcast
11:53 AM 32.0 °F 24.8 °F 32.0 °F 100% 30.26 in 10.0 mi NNE 8.1 mph - N/A   Overcast
12:20 PM 32.0 °F 24.2 °F 32.0 °F 100% 30.25 in 10.0 mi NE 9.2 mph - N/A   Overcast
12:53 PM 33.1 °F 26.1 °F 32.0 °F 96% 30.26 in 10.0 mi NE 8.1 mph - N/A   Overcast
1:10 PM 33.8 °F 24.8 °F 30.2 °F 87% 30.25 in 10.0 mi NNE 12.7 mph - N/A   Overcast
1:53 PM 36.0 °F 28.5 °F 30.9 °F 82% 30.25 in 10.0 mi North 10.4 mph - N/A   Mostly Cloudy
2:26 PM 37.4 °F 29.8 °F 30.2 °F 75% 30.22 in 10.0 mi North 11.5 mph - N/A   Partly Cloudy
2:53 PM 37.9 °F 32.1 °F 30.0 °F 73% 30.22 in 10.0 mi North 8.1 mph - N/A   Clear
3:53 PM 39.0 °F 32.8 °F 30.0 °F 70% 30.20 in 10.0 mi North 9.2 mph - N/A   Clear
4:53 PM 37.9 °F 30.9 °F 30.0 °F 73% 30.19 in 10.0 mi North 10.4 mph - N/A   Clear
5:53 PM 37.9 °F 31.5 °F 30.0 °F 73% 30.17 in 10.0 mi North 9.2 mph - N/A   Clear
6:53 PM 37.9 °F 32.1 °F 28.9 °F 70% 30.16 in 10.0 mi North 8.1 mph - N/A   Clear
7:53 PM 36.0 °F 32.1 °F 28.9 °F 76% 30.15 in 10.0 mi North 4.6 mph - N/A   Clear
8:53 PM 34.0 °F 28.8 °F 28.0 °F 79% 30.15 in 10.0 mi North 5.8 mph - N/A   Clear
9:53 PM 30.9 °F - 26.1 °F 82% 30.14 in 10.0 mi Calm Calm - N/A   Clear
10:53 PM 28.0 °F - 26.1 °F 92% 30.14 in 10.0 mi Calm Calm - N/A   Clear
11:53 PM 26.1 °F - 24.1 °F 92% 30.13 in 10.0 mi Calm Calm - N/A   Clear